Time,TemperatureF,DewpointF,PressureIn,WindDirection,WindDirectionDegrees,WindSpeedMPH,WindSpeedGustMPH,Humidity,HourlyPrecipIn,Conditions,Clouds,dailyrainin,SoftwareType,DateUTC
2013-06-24 16:52:00,75.2,68.2,29.72,East,86,4.0,16.0,79,0.01,,,0.24,VWS V12.08,2013-06-24 21:52:00,
2013-06-24 16:53:00,75.2,68.2,29.73,East,80,3.0,16.0,79,0.01,,,0.24,VWS V12.08,2013-06-24 21:53:00,
2013-06-24 16:54:00,75.2,67.9,29.72,East,89,7.0,16.0,78,0.01,,,0.24,VWS V12.08,2013-06-24 21:54:00,
2013-06-24 16:59:00,75.3,68.3,29.72,East,86,10.0,16.0,79,0.01,,,0.24,VWS V12.08,2013-06-24 21:59:00,
2013-06-24 17:04:00,75.6,68.6,29.73,East,96,5.0,7.0,79,0.00,,,0.24,VWS V12.08,2013-06-24 22:04:00,
2013-06-24 17:09:00,75.7,68.7,29.72,SSE,162,1.0,7.0,79,0.00,,,0.24,VWS V12.08,2013-06-24 22:09:00,
2013-06-24 17:14:00,76.1,69.1,29.72,ESE,109,4.0,7.0,79,0.00,,,0.24,VWS V12.08,2013-06-24 22:14:00,
2013-06-24 17:19:00,76.2,68.8,29.72,ESE,106,4.0,7.0,78,0.00,,,0.24,VWS V12.08,2013-06-24 22:19:00,
2013-06-24 17:25:00,76.6,68.9,29.71,East,101,2.0,7.0,77,0.00,,,0.24,VWS V12.08,2013-06-24 22:25:00,
2013-06-24 17:30:00,77.2,69.1,29.70,East,94,9.0,9.0,76,0.00,,,0.24,VWS V12.08,2013-06-24 22:30:00,
2013-06-24 17:36:00,77.8,68.9,29.70,SE,136,7.0,9.0,74,0.00,,,0.24,VWS V12.08,2013-06-24 22:36:00,
2013-06-24 17:41:00,77.7,68.4,29.70,SSW,196,4.0,10.0,73,0.00,,,0.24,VWS V12.08,2013-06-24 22:41:00,
2013-06-24 17:46:00,77.8,68.9,29.71,SSW,209,5.0,10.0,74,0.00,,,0.24,VWS V12.08,2013-06-24 22:46:00,
2013-06-24 17:51:00,77.9,68.9,29.71,SE,140,7.0,10.0,74,0.00,,,0.24,VWS V12.08,2013-06-24 22:51:00,
2013-06-24 17:57:00,78.1,69.1,29.71,South,178,7.0,11.0,74,0.00,,,0.24,VWS V12.08,2013-06-24 22:57:00,
2013-06-24 18:02:00,78.3,69.3,29.71,SSE,168,4.0,7.0,74,0.00,,,0.24,VWS V12.08,2013-06-24 23:02:00,
2013-06-24 18:08:00,78.5,69.5,29.71,SSW,206,5.0,10.0,74,0.00,,,0.24,VWS V12.08,2013-06-24 23:08:00,
2013-06-24 18:13:00,78.7,69.7,29.70,SSE,167,5.0,10.0,74,0.00,,,0.24,VWS V12.08,2013-06-24 23:13:00,
2013-06-24 18:18:00,79.2,69.8,29.69,SSE,167,4.0,10.0,73,0.00,,,0.24,VWS V12.08,2013-06-24 23:18:00,
2013-06-24 18:23:00,79.8,70.4,29.70,SSE,154,2.0,10.0,73,0.00,,,0.24,VWS V12.08,2013-06-24 23:23:00,
2013-06-24 18:28:00,80.4,70.6,29.70,SSE,149,7.0,10.0,72,0.00,,,0.24,VWS V12.08,2013-06-24 23:28:00,
2013-06-24 18:33:00,80.4,69.7,29.70,SSE,150,15.0,16.0,70,0.00,,,0.24,VWS V12.08,2013-06-24 23:33:00,
2013-06-24 18:38:00,80.3,69.6,29.70,SSW,203,3.0,16.0,70,0.00,,,0.24,VWS V12.08,2013-06-24 23:38:00,
2013-06-24 18:43:00,80.3,69.2,29.70,South,180,6.0,16.0,69,0.00,,,0.24,VWS V12.08,2013-06-24 23:43:00,
2013-06-24 18:48:00,80.3,68.8,29.70,South,188,9.0,16.0,68,0.00,,,0.24,VWS V12.08,2013-06-24 23:48:00,
2013-06-24 18:54:00,80.4,69.3,29.70,SE,139,6.0,16.0,69,0.00,,,0.24,VWS V12.08,2013-06-24 23:54:00,
2013-06-24 18:59:00,80.4,69.7,29.70,SE,132,5.0,16.0,70,0.00,,,0.24,VWS V12.08,2013-06-24 23:59:00,
2013-06-24 19:04:00,80.1,69.9,29.70,South,181,2.0,11.0,71,0.00,,,0.24,VWS V12.08,2013-06-25 00:04:00,
2013-06-24 19:09:00,79.9,69.2,29.70,SSE,149,10.0,13.0,70,0.00,,,0.24,VWS V12.08,2013-06-25 00:09:00,
2013-06-24 19:14:00,79.6,69.8,29.70,SE,140,10.0,13.0,72,0.00,,,0.24,VWS V12.08,2013-06-25 00:14:00,
2013-06-24 19:19:00,79.4,69.6,29.70,SSE,153,10.0,13.0,72,0.00,,,0.24,VWS V12.08,2013-06-25 00:19:00,
2013-06-24 19:24:00,79.2,69.4,29.70,SE,146,5.0,13.0,72,0.00,,,0.24,VWS V12.08,2013-06-25 00:24:00,
2013-06-24 19:29:00,79.3,69.9,29.70,SE,139,7.0,13.0,73,0.00,,,0.24,VWS V12.08,2013-06-25 00:29:00,
2013-06-24 19:35:00,79.3,69.9,29.70,SE,131,9.0,10.0,73,0.00,,,0.24,VWS V12.08,2013-06-25 00:35:00,
2013-06-24 19:40:00,79.0,70.4,29.70,SE,138,4.0,13.0,75,0.00,,,0.24,VWS V12.08,2013-06-25 00:40:00,
2013-06-24 19:45:00,78.5,69.9,29.70,ESE,121,10.0,16.0,75,0.00,,,0.24,VWS V12.08,2013-06-25 00:45:00,
2013-06-24 21:41:00,72.4,68.0,29.69,SSE,168,3.0,5.0,86,0.00,,,0.24,VWS V12.08,2013-06-25 02:41:00,
2013-06-24 21:46:00,72.4,68.0,29.69,ESE,113,2.0,5.0,86,0.00,,,0.24,VWS V12.08,2013-06-25 02:46:00,
2013-06-24 21:53:00,72.4,68.0,29.70,SE,140,2.0,3.0,86,0.00,,,0.24,VWS V12.08,2013-06-25 02:53:00,
2013-06-24 21:58:00,72.4,68.0,29.70,SE,137,3.0,4.0,86,0.00,,,0.24,VWS V12.08,2013-06-25 02:58:00,
2013-06-24 22:03:00,72.3,68.2,29.71,ESE,115,2.0,4.0,87,0.00,,,0.24,VWS V12.08,2013-06-25 03:03:00,
2013-06-24 22:08:00,72.3,68.2,29.71,SE,134,4.0,4.0,87,0.00,,,0.24,VWS V12.08,2013-06-25 03:08:00,
2013-06-24 22:13:00,72.2,68.1,29.71,ESE,112,2.0,5.0,87,0.00,,,0.24,VWS V12.08,2013-06-25 03:13:00,
2013-06-24 22:18:00,72.1,68.0,29.72,SE,128,3.0,5.0,87,0.00,,,0.24,VWS V12.08,2013-06-25 03:18:00,
2013-06-24 22:23:00,72.0,68.3,29.72,SE,125,3.0,5.0,88,0.00,,,0.24,VWS V12.08,2013-06-25 03:23:00,
2013-06-24 22:29:00,71.9,68.2,29.72,SE,124,3.0,5.0,88,0.00,,,0.24,VWS V12.08,2013-06-25 03:29:00,
2013-06-24 22:34:00,71.8,68.1,29.72,SE,139,2.0,6.0,88,0.00,,,0.24,VWS V12.08,2013-06-25 03:34:00,
2013-06-24 22:39:00,71.8,68.1,29.72,SE,129,5.0,6.0,88,0.00,,,0.24,VWS V12.08,2013-06-25 03:39:00,
2013-06-24 22:44:00,71.8,68.1,29.72,SE,126,5.0,6.0,88,0.00,,,0.24,VWS V12.08,2013-06-25 03:44:00,
2013-06-24 22:49:00,71.7,68.0,29.72,SE,132,6.0,9.0,88,0.00,,,0.24,VWS V12.08,2013-06-25 03:49:00,
2013-06-24 22:54:00,71.5,67.8,29.71,SSE,168,3.0,9.0,88,0.00,,,0.24,VWS V12.08,2013-06-25 03:54:00,
2013-06-24 22:59:00,71.4,67.7,29.71,SE,146,5.0,9.0,88,0.00,,,0.24,VWS V12.08,2013-06-25 03:59:00,
2013-06-24 23:01:00,71.4,67.7,29.71,SSE,147,5.0,9.0,88,0.00,,,0.24,VWS V12.08,2013-06-25 04:01:00,
2013-06-24 23:06:00,71.3,67.6,29.71,SSE,165,7.0,11.0,88,0.00,,,0.24,VWS V12.08,2013-06-25 04:06:00,
2013-06-24 23:11:00,71.2,67.5,29.71,SSE,150,5.0,11.0,88,0.00,,,0.24,VWS V12.08,2013-06-25 04:11:00,
2013-06-24 23:16:00,71.2,67.5,29.71,ESE,117,5.0,11.0,88,0.00,,,0.24,VWS V12.08,2013-06-25 04:16:00,
2013-06-24 23:21:00,71.2,67.5,29.71,SE,129,4.0,11.0,88,0.00,,,0.24,VWS V12.08,2013-06-25 04:21:00,
2013-06-24 23:26:00,71.1,67.4,29.71,SE,126,5.0,11.0,88,0.00,,,0.24,VWS V12.08,2013-06-25 04:26:00,
2013-06-24 23:31:00,71.0,67.3,29.70,SE,127,3.0,4.0,88,0.00,,,0.24,VWS V12.08,2013-06-25 04:31:00,
2013-06-24 23:36:00,70.9,67.5,29.70,SE,137,3.0,6.0,89,0.00,,,0.24,VWS V12.08,2013-06-25 04:36:00,
2013-06-24 23:41:00,70.8,67.4,29.70,ESE,112,4.0,6.0,89,0.00,,,0.24,VWS V12.08,2013-06-25 04:41:00,